Location: Beuerbach
(48.1459°N, 10.9174°E)
Time: 00:19:51
(UTC+00:00)

Meteor 1-21 - Pass Details

Date: 14 August 2024
Orbit: 845 x 885 km, 81.2° (Epoch: 09 September)

Event Time Altitude Azimuth Distance (km) Brightness Sun altitude
Rises 23:59:23 0° 348° (NNW) 3,419 8.4 -27.0°
Reaches altitude 10° 00:01:48 10° 348° (NNW) 2,481 7.5 -26.9°
Maximum altitude 00:07:26 89° 263° (W) 858 4.1 -26.7°
Enters shadow 00:07:46 80° 177° (S) 868 4.0 -26.7°
